Kuchera_Ratio
0.0 0.0 0.0 0.0 0.0 0.0 0.0 0.0 0.0 0.0 0.0 0.0 0.0 0.0 0.0 0.0 0.5 0.2 0.4 0.6 0.9 1.1
0.0 0.0 0.0 0.0 0.0 0.0 0.0 0.0 0.0 0.0 0.0 0.0 0.0 0.0 0.0 0.2 0.7 0.5 0.6 0.8 0.9 1.0
0.0 0.0 0.0 0.0 0.0 0.0 0.0 0.0 0.0 0.0 0.0 0.0 0.0 0.0 0.0 0.7 0.9 0.9 1.9 1.8 1.2 1.4
0.0 0.0 0.0 0.0 0.0 0.0 0.0 0.0 0.0 0.0 0.0 0.0 0.0 0.0 0.4 1.2 1.5 2.4 3.3 3.1 2.8 4.7
0.0 0.0 0.0 0.0 0.0 0.0 0.0 0.0 0.0 0.0 0.0 0.1 0.2 0.4 1.1 2.7 2.7 3.9 5.0 5.6 5.0 6.9
0.0 0.0 0.0 0.0 0.0 0.0 0.0 0.0 0.0 0.1 0.4 0.8 0.9 1.1 2.0 3.1 4.4 5.0 6.0 6.6 6.7 7.9
0.0 0.0 0.0 0.0 0.0 0.0 0.0 0.0 0.0 0.3 0.7 1.1 1.7 2.3 3.3 4.7 6.1 7.3 8.2 8.6 8.7 9.2
0.0 0.0 0.0 0.0 0.0 0.0 0.0 0.0 0.1 1.0 1.6 2.0 2.4 2.5 4.6 5.7 7.2 8.8 9.3 9.6 9.9 10.7
0.0 0.0 0.0 0.0 0.0 0.1 0.2 0.5 1.4 2.4 3.2 4.0 3.5 1.5 2.7 5.7 8.1 9.9 9.9 9.6 10.0 10.1
0.0 0.0 0.0 0.0 1.1 1.9 2.2 2.7 4.3 6.4 4.7 5.1 4.5 1.9 2.3 4.5 8.2 10.5 10.6 10.5 10.7 11.0
0.0 0.0 0.0 0.3 1.5 3.1 4.1 5.1 7.0 7.6 6.6 6.5 7.4 2.9 3.9 7.3 9.2 10.9 11.6 11.8 11.9 11.8
0.0 0.0 0.0 0.0 1.7 2.1 4.5 6.9 7.2 7.1 8.2 8.5 9.4 3.7 5.7 9.5 12.0 12.5 12.2 12.2 12.4 12.3
0.0 0.0 0.0 0.0 2.3 3.3 4.3 5.1 6.3 8.3 8.3 8.7 10.2 4.9 5.9 10.9 12.4 13.2 13.1 12.8 12.9 12.8
0.0 0.0 0.0 0.3 1.7 3.1 3.9 6.7 8.5 8.7 10.1 10.3 10.8 11.9 5.3 8.1 12.5 12.8 12.9 12.9 12.9 13.3